Location: Domiarki
(50.2181°N, 20.0307°E)
Time: 16:18:23
(UTC+00:00)

Daily predictions for brighter satellites

Satellite Brightness Start Highest point End
(mag) Time Altitude Azimuth Time Altitude Azimuth Time Altitude Azimuth
Resurs 01 Rocket 2.7 19:31:22 10° S 19:35:38 46° W 19:39:56 10° NNW
Cosmos 1455 2.3 19:33:39 10° N 19:37:27 66° ENE 19:41:15 10° SSE
Lacrosse 4 Rocket 4.3 19:36:23 10° W 19:39:41 23° NW 19:42:57 10° NNE
Lacrosse 5 2.1 19:39:14 10° WNW 19:44:17 62° SW 19:49:19 10° SE
Terra 2.3 19:42:50 10° SE 19:47:24 49° ENE 19:52:01 10° N
ATLAS 2AS CENTAUR R/B 2.9 19:40:27 10° NW 19:47:35 70° SW 19:54:12 10° SSE
Meteor 2-5 Rocket 3.9 19:45:57 10° SSW 19:51:28 77° WNW 19:57:04 10° N
USA 234 3.8 19:45:45 10° E 19:52:10 59° NNE 19:58:35 10° WNW
Cosmos 1980 Rocket 3.7 19:48:07 10° NNW 19:52:59 28° NE 19:57:50 10° ESE
FALCON 9 DEB 3.8 19:50:25 10° W 19:53:38 55° N 19:56:52 10° ENE
Cosmos 1025 Rocket 3.4 19:49:29 10° SSW 19:53:43 66° WNW 19:58:02 10° N
Spot 2 Rocket 3.6 19:48:54 10° SSE 19:53:59 80° ENE 19:59:07 10° NNW
Cosmos 1697 Rocket 3.4 19:50:06 10° NNW 19:55:30 45° NE 20:00:52 10° SE
Cosmos 1455 Rocket 4.4 19:53:55 10° NNW 19:57:58 38° W 20:01:56 10° SSW
CZ-4B R/B 2.9 19:58:23 10° N 20:01:02 32° WNW 20:03:38 10° SW
Cosmos 1656 3.7 19:55:37 10° NNW 20:01:07 86° ENE 20:06:29 11° SSE
Cosmos 1371 Rocket 4.5 19:56:14 10° SW 20:01:26 66° WNW 20:06:45 10° NNE
Cosmos 1452 Rocket 3.9 19:56:55 10° S 20:01:52 44° ESE 20:06:51 10° NE
Cosmos 2315 Rocket 4.4 19:56:54 10° SSW 20:03:13 68° WNW 20:09:30 10° N
ARIANE 5 R/B 3.0 20:03:39 11° SSE 20:07:50 55° ENE 20:12:11 10° N
Cosmos 1703 3.6 20:04:20 10° SSE 20:08:01 45° E 20:11:43 10° NNE
CZ-2C R/B 3.9 20:07:01 10° NNE 20:11:34 56° E 20:16:00 10° S
USA 102 2.1 20:04:47 11° SSE 20:14:05 70° SW 20:14:40 34° WNW
Cosmos 2074 Rocket 4.0 20:08:37 10° N 20:14:56 84° E 20:21:11 10° S
Cosmos 1607 4.2 20:09:44 10° SW 20:15:58 74° NW 20:22:11 10° NE
USA 245 4.5 20:12:04 10° S 20:16:22 41° W 20:19:54 10° NNW
SL-8 R/B 3.8 20:14:17 10° W 20:19:03 64° SSW 20:23:49 10° ESE
Cosmos 2228 3.0 20:19:27 10° N 20:23:41 73° ENE 20:27:15 14° SSE
Cosmos 1833 Rocket 3.1 20:19:18 10° S 20:24:32 42° ESE 20:29:49 10° NE
Meteor 1-21 Rocket 4.5 20:21:05 10° S 20:26:24 54° E 20:31:55 10° NNE
Cosmos 1536 Rocket 3.6 20:23:32 10° S 20:27:51 84° W 20:32:14 10° N
ERS-1 Rocket 3.3 20:23:33 10° S 20:28:32 62° WSW 20:33:32 10° NNW
Cosmos 2084 Rocket 4.2 20:25:25 10° NW 20:29:07 43° NE 20:32:56 10° ESE
Cosmos 2084 4.2 20:26:40 10° WSW 20:30:25 51° NW 20:34:14 10° NE
Nadezhda 1 Rocket 4.0 20:26:46 10° S 20:32:39 62° E 20:38:39 10° NNE
Cosmos 1606 Rocket 3.7 20:28:56 10° N 20:33:13 61° ENE 20:36:30 17° SSE
Cosmos 2360 4.3 20:31:35 10° NNW 20:37:21 81° ENE 20:42:01 16° SSE
Cosmos 2154 Rocket 4.0 20:34:48 10° N 20:41:04 88° WSW 20:46:31 14° S
Cosmos 968 Rocket 4.1 20:38:00 10° NNW 20:43:04 49° ENE 20:47:10 15° SE
Cosmos 1741 Rocket 4.4 20:41:02 10° NNW 20:46:17 61° WSW 20:50:33 15° S
Cosmos 2082 Rocket 3.2 20:46:10 17° SSE 20:49:35 30° ESE 20:54:28 10° NE
ASTEX 1 3.7 20:47:17 10° NNE 20:52:11 52° E 20:55:41 18° SSE
Meteor 2-1 Rocket 4.2 20:51:38 10° NNW 20:57:10 79° W 21:01:30 17° S
Cosmos 1726 Rocket 3.5 20:53:18 10° N 20:57:38 82° E 21:00:33 20° SSE
USA 267 3.3 20:53:03 10° ENE 20:59:30 57° SE 21:05:55 10° SW
SPOT 5 4.3 20:56:02 10° SSW 20:59:45 26° W 21:03:25 10° NW
USA 276 1.8 20:57:44 10° WSW 21:00:45 78° S 21:03:45 10° E
X-37B 1.3 20:58:47 10° WSW 21:01:12 27° S 21:01:12 27° S
Cosmos 1825 3.8 21:03:29 17° ESE 21:04:55 21° E 21:07:46 10° NE
RESURS DK-1 3.4 21:04:24 10° NW 21:08:12 36° WSW 21:10:41 18° SSW
SL-8 Rocket 4.2 21:03:14 10° N 21:09:28 64° ENE 21:13:53 20° SSE
Cosmos 2344 4.3 21:09:55 10° NW 21:18:42 77° SW 21:28:41 17° SSE
ALOS 2 3.6 21:16:15 18° SE 21:19:03 37° ENE 21:23:06 10° N
Cosmos 967 Rocket 4.5 21:13:16 10° SSW 21:19:43 74° SE 21:26:11 10° NE
Cosmos 2218 Rocket 4.2 21:17:09 10° N 21:23:34 69° ENE 21:27:59 21° SSE
Terra 3.6 21:21:33 10° SSW 21:25:25 24° W 21:29:19 10° NW
Cosmos 2366 rocket 4.1 21:19:36 10° N 21:25:57 71° ENE 21:30:18 21° SSE
Lacrosse 5 3.9 21:23:44 10° W 21:26:24 14° WSW 21:28:44 11° SSW
Meteor 1-27 4.4 21:21:32 10° N 21:27:06 64° ENE 21:30:42 22° SSE
FALCON 9 DEB 3.6 21:26:57 10° WNW 21:30:11 58° NNE 21:33:25 10° E
COSMOS 2406 3.2 21:25:53 13° SSW 21:31:02 78° ESE 21:36:49 10° NNE
Cosmos 2369 3.8 21:25:36 10° NNW 21:31:20 70° WSW 21:34:58 23° SSE
Cosmos 1869 3.6 21:27:37 10° N 21:31:25 52° ENE 21:33:17 27° SE
Cosmos 1331 Rocket 4.4 21:26:20 10° SW 21:31:36 63° WNW 21:36:53 10° NNE
SL-16 R/B 3.3 21:26:22 10° NNW 21:31:41 38° NE 21:36:52 10° ESE
Cosmos 2341 Rocket 4.1 21:26:58 10° NNW 21:33:19 78° W 21:37:44 21° S
Cosmos 2058 Rocket 3.1 21:29:48 10° NNW 21:34:13 73° W 21:36:44 25° S
USA 234 3.2 21:29:35 15° SE 21:35:07 73° SW 21:41:42 10° WNW
Cosmos 1892 Rocket 3.8 21:33:27 19° SSW 21:36:34 68° WNW 21:40:57 10° N
Cosmos 1980 Rocket 2.3 21:31:50 10° NNW 21:37:32 71° WSW 21:41:03 24° SSE
Cosmos 1697 Rocket 3.6 21:34:16 10° NW 21:39:24 37° WSW 21:42:50 19° SSW
Cosmos 1892 2.6 21:38:16 28° S 21:40:10 90° SSW 21:43:58 10° N
Cosmos-2242 4.2 21:37:12 10° N 21:41:04 33° ENE 21:43:24 19° ESE
Cosmos 1408 2.8 21:44:51 26° SSW 21:46:36 60° WNW 21:50:02 10° N
Cosmos 1959 Rocket 4.4 21:43:15 10° N 21:49:24 85° W 21:53:20 24° S
Cosmos 1626 Rocket 3.6 21:49:36 29° SSE 21:51:39 63° E 21:55:58 10° NNE
GP-B 3.8 21:48:09 10° N 21:52:26 49° W 21:55:18 20° SSW
Meteor 1-11 4.4 21:49:10 17° SSW 21:53:30 70° WNW 21:59:05 10° N
In-Cosmos 22 Rocket 4.1 21:50:56 23° S 21:54:34 85° ESE 22:00:04 10° NNE
Cosmos 1503 Rocket 4.5 21:51:35 10° NNW 21:56:50 56° ENE 22:00:25 20° SE
Cosmos 1867 3.7 21:51:37 10° NW 21:57:02 65° SW 22:00:06 26° SSE
Cosmos 1302 Rocket 4.1 21:54:26 16° SSW 21:58:41 73° WNW 22:03:55 10° NNE
Spot 4 4.1 22:00:14 26° S 22:02:48 59° W 22:07:33 10° NNW
Cosmos 2181 Rocket 4.1 22:02:46 20° SSW 22:07:08 76° WNW 22:13:23 10° N
Cosmos 2084 Rocket 4.3 22:04:58 10° WNW 22:08:25 30° WSW 22:09:23 27° SSW
Cosmos 1833 Rocket 3.9 22:03:15 10° WSW 22:08:30 40° NW 22:13:49 10° NNE
Cosmos 2322 Rocket 2.9 22:04:41 10° NNW 22:10:13 51° NE 22:14:58 14° SE
ATLAS 5 CENTAUR R/B 1.8 22:10:08 33° SSE 22:10:54 38° ESE 22:14:45 10° NE
SJ 16-02 2.1 22:09:10 10° NNW 22:13:28 46° ENE 22:16:13 20° SE
Cosmos 2333 Rocket 4.0 22:08:37 10° NNW 22:13:33 28° NE 22:18:28 10° ESE
Okean 1-7 Rocket 3.7 22:11:18 26° SSW 22:13:45 70° WNW 22:18:14 10° N
Cosmos 2278 3.9 22:09:58 10° NW 22:15:37 61° WSW 22:18:43 27° S
Cosmos 1821 Rocket 4.0 22:16:06 10° N 22:22:25 88° E 22:26:11 26° S
Cosmos 2082 Rocket 2.8 22:27:58 11° SW 22:33:23 56° NW 22:39:01 10° NNE
ADEOS Rocket 3.7 22:30:44 24° S 22:35:23 63° W 22:43:02 10° NNW
USA 276 1.8 22:33:24 10° W 22:36:25 77° S 22:37:51 28° ESE
Cosmos 2221 3.8 22:33:54 10° N 22:37:51 33° ENE 22:40:33 17° SE
Cosmos 1758 Rocket 3.5 22:37:57 32° SSW 22:39:58 84° WNW 22:44:22 10° N
Cosmos 1825 3.4 22:38:06 20° SW 22:40:04 34° WNW 22:43:31 10° N
ERS-2 2.0 22:36:33 10° NNE 22:40:10 85° ESE 22:41:23 39° S
Cosmos 1932 4.4 22:35:39 16° SW 22:40:46 89° WNW 22:47:10 10° NE
Nadezhda 3 Rocket 3.9 22:37:36 26° S 22:41:17 83° E 22:47:29 10° N
USA 267 3.6 22:36:09 10° ENE 22:42:38 67° NNW 22:49:06 10° WSW
Cosmos 2360 Rocket 2.6 22:43:24 10° NNW 22:49:05 63° ENE 22:53:49 15° SE
Cosmos 1812 Rocket 4.3 22:45:10 10° NNW 22:49:25 44° W 22:51:22 27° SSW
Cosmos 2237 4.2 22:44:34 10° NNW 22:50:22 89° ENE 22:54:11 22° SSE
PSLV R/B 3.8 22:48:24 10° NNE 22:53:13 77° ESE 22:55:33 30° S
Cosmos 1633 3.3 22:51:55 28° SW 22:53:15 43° WNW 22:56:36 10° N
ALOS 2 3.9 22:53:39 21° SW 22:55:27 28° W 22:59:16 10° NW
SL-4 R/B 3.8 22:58:55 15° ESE 22:58:55 15° ESE 23:00:24 10° E
Cosmos 1606 3.1 22:56:13 10° NNW 22:59:59 52° W 23:01:19 34° SSW
COSMOS 2428 4.4 22:55:59 10° NNW 23:01:03 31° NE 23:06:06 10° ESE
FALCON 9 DEB 3.2 23:03:16 10° WNW 23:06:26 46° SSW 23:06:28 46° SSW
Geosat FO 4.4 23:07:36 36° SSE 23:08:57 81° WSW 23:12:36 10° NNW
SL-16 R/B 2.6 23:10:31 10° NW 23:15:55 46° WSW 23:18:41 26° SSW
Meteor 2-11 Rocket 4.4 23:09:55 10° NNW 23:16:05 85° W 23:19:57 24° S
Cosmos-2242 4.3 23:14:53 10° NNW 23:18:30 27° W 23:20:11 21° SW
USA 234 4.3 23:16:55 22° SSW 23:18:52 25° SW 23:24:06 10° WNW
Cosmos 2058 3.2 23:18:20 29° SSW 23:20:18 60° WNW 23:24:28 10° N
Cosmos 1980 Rocket 4.3 23:18:15 10° WNW 23:20:29 12° W 23:22:43 10° WSW
CZ-2D R/B 3.7 23:23:58 10° NE 23:28:15 25° E 23:31:56 12° SE
Cosmos 2219 Rocket 2.8 23:23:13 10° NNW 23:28:49 58° NE 23:34:24 10° SE
Cosmos 1953 Rocket 3.7 23:27:02 29° SSW 23:29:16 71° WNW 23:33:42 10° N
Cosmos 990 Rocket 4.5 23:27:16 10° NNW 23:32:22 57° ENE 23:37:23 10° SE
Resurs 1-4 Rocket 3.5 23:28:33 10° NE 23:33:09 29° E 23:36:57 14° SSE
SL-19 R/B 4.3 23:32:32 33° S 23:33:59 61° WSW 23:38:07 10° NNW
Gbstr 26 Del rocket 4.0 23:34:00 27° S 23:35:42 36° SE 23:40:45 10° ENE
SL-16 R/B 3.6 23:31:17 10° SE 23:37:08 44° ENE 23:43:02 10° N
BREEZE-M DEB (TANK) 2.6 23:32:20 10° W 23:38:34 81° S 23:41:07 10° E
Cosmos 1076 Rocket 3.9 23:37:48 25° SSE 23:40:10 57° E 23:44:28 10° NNE
Cosmos 1934 Rocket 4.4 23:35:57 10° NNW 23:41:45 48° W 23:45:24 22° SSW
MOZ.5/SAFIR/RUBIN 5/SL-8 3.8 23:40:12 21° SSE 23:43:26 83° ENE 23:48:12 10° NNW
Cosmos 1340 Rocket 3.3 23:41:37 27° SW 23:43:29 50° WNW 23:47:21 10° N
BREEZE-M DEB (TANK) 3.2 23:45:28 28° SW 23:47:02 57° SSE 23:54:44 10° ENE
Cosmos 972 Rocket 4.3 23:42:36 10° NNW 23:47:33 53° WSW 23:50:43 23° S
Geosat 4.1 23:46:28 21° S 23:49:43 60° WSW 23:54:43 10° NW
SJ 16-02 2.8 23:48:14 10° NW 23:51:44 23° W 23:53:10 20° SW
Cosmos 2322 Rocket 3.1 23:49:04 10° NW 23:54:04 33° WSW 23:56:45 22° SSW
ATLAS 5 CENTAUR R/B 2.8 23:51:49 10° W 23:55:25 35° NNW 23:59:33 10° NE
COSMOS 2487 2.8 23:55:07 30° SSE 23:56:10 42° ESE 23:59:07 10° NE
